This demonstration page uses our WeatherBlox Daily Observations layout. Learn more.

Left ArrowRight Arrow

39.08367, -84.50855

Hourly Observations for July 20, 2015

Temp ( °F °C ) Dew Point ( °F °C ) Humidity (%) Winds ( mph kmh ) Pressure ( in mb ) Visibility ( mi km ) Precip ( " mm )
12:40 am 00:40 Mostly Cloudy with Mist and Fog 71 21.7 71 21.7 100 100 Calm 29.91 1013 6 10 0.00 0.00
12:53 am 00:53 Partly Cloudy with Mist and Fog 71 21.7 71 21.7 100 100 WSW 3 6 29.91 1013 3 4 0.00 0.00
1:01 am 01:01 Partly Cloudy with Mist and Fog 71 21.7 71 21.7 100 100 WSW 5 7 29.91 1013 5 8 0.00 0.00
1:53 am 01:53 Clear with Mist and Fog 71 21.7 71 21.7 100 100 Calm 29.89 1012 6 10 0.00 0.00
2:45 am 02:45 Mostly Clear with Mist and Fog 71 21.7 71 21.7 100 100 Calm 29.88 1012 2 3 0.00 0.00
2:48 am 02:48 Mostly Cloudy with Mist and Fog 70 21 70 21 100 100 Calm 29.88 1012 1 1 0.00 0.00
2:53 am 02:53 Mostly Cloudy with Fog 70 21.1 70 21.1 100 100 Calm 29.87 1012 1 1 0.00 0.00
3:06 am 03:06 Mostly Clear with Mist and Fog 72 22 72 22 100 100 Calm 29.88 1012 1 2 0.00 0.00
3:09 am 03:09 Mostly Clear with Mist and Fog 71 21.7 71 21.7 100 100 Calm 29.88 1012 3 5 0.00 0.00
3:13 am 03:13 Partly Cloudy with Mist and Fog 71 21.7 71 21.7 100 100 Calm 29.88 1012 2 3 0.00 0.00
3:18 am 03:18 Mostly Cloudy with Mist and Fog 70 21 70 21 100 100 Calm 29.88 1012 1 1 0.00 0.00
3:30 am 03:30 Mostly Cloudy with Mist and Fog 70 21.1 70 21.1 100 100 SW 3 6 29.88 1012 2 2 0.00 0.00
3:40 am 03:40 Partly Cloudy with Mist and Fog 70 21 70 21 100 100 SW 3 6 29.88 1012 2 3 0.00 0.00
3:50 am 03:50 Mostly Clear with Mist and Fog 70 21 70 21 100 100 Calm 29.88 1012 4 6 0.00 0.00
3:53 am 03:53 Mostly Clear with Mist and Fog 70 21.1 70 21.1 100 100 Calm 29.86 1011 4 6 0.00 0.00
4:53 am 04:53 Clear with Mist and Fog 69 20.6 69 20.6 100 100 Calm 29.86 1011 3 5 0.00 0.00
5:01 am 05:01 Clear with Mist and Fog 69 20.6 69 20.6 100 100 Calm 29.88 1012 3 4 0.00 0.00
5:11 am 05:11 Clear with Mist and Fog 69 20.6 69 20.6 100 100 S 5 7 29.88 1012 4 6 0.00 0.00
5:31 am 05:31 Mostly Cloudy with Mist and Fog 69 20.6 69 20.6 100 100 Calm 29.88 1012 2 2 0.00 0.00
5:39 am 05:39 Mostly Cloudy with Mist and Fog 69 20.6 69 20.6 100 100 Calm 29.88 1012 1 1 0.00 0.00
5:50 am 05:50 Mostly Cloudy with Mist and Fog 70 21 70 21 100 100 Calm 29.88 1012 2 3 0.00 0.00
5:51 am 05:51 Mostly Cloudy with Mist and Fog 70 21 70 21 100 100 Calm 29.88 1012 3 4 0.00 0.00
5:58 am 05:58 Partly Cloudy with Mist and Fog 70 21 70 21 100 100 Calm 29.88 1012 3 5 0.00 0.00
6:05 am 06:05 Mostly Cloudy with Mist and Fog 70 21.1 70 21.1 100 100 Calm 29.88 1012 3 4 0.00 0.00
6:21 am 06:21 Mostly Cloudy with Mist and Fog 70 21.1 70 21.1 100 100 Calm 29.88 1012 3 5 0.00 0.00
6:38 am 06:38 Cloudy with Mist and Fog 70 21 70 21 100 100 Calm 29.91 1013 4 6 0.00 0.00
6:53 am 06:53 Mostly Cloudy with Mist and Fog 70 21.1 70 21.1 100 100 Calm 29.88 1012 5 8 0.00 0.00
7:53 am 07:53 Mostly Sunny 73 22.8 72 22.2 96 96 Calm 29.89 1012 9 14 0.00 0.00
8:53 am 08:53 Sunny 77 25 74 23.3 90 90 Calm 29.87 1012 10 16 0.00 0.00
9:53 am 09:53 Cloudy 78 25.6 73 22.8 85 85 SW 6 9 29.86 1011 10 16 0.00 0.00
10:53 am 10:53 Sunny 80 26.7 74 23.3 82 82 Calm 29.85 1011 10 16 0.00 0.00
11:53 am 11:53 Mostly Cloudy 83 28.3 74 23.3 74 74 S 6 9 29.84 1011 10 16 0.00 0.00
12:53 pm 12:53 Mostly Cloudy 85 29.4 74 23.3 70 70 S 9 15 29.83 1010 10 16 0.00 0.00
1:53 pm 13:53 Mostly Cloudy 86 30 72 22.2 63 63 VRB 7 11 29.82 1010 10 16 0.00 0.00
2:53 pm 14:53 Mostly Cloudy 85 29.4 73 22.8 68 68 SW 8 13 29.81 1009 10 16 0.00 0.00
3:53 pm 15:53 Mostly Sunny 85 29.4 72 22.2 65 65 WSW 10 17 29.80 1009 10 16 0.00 0.00
4:53 pm 16:53 Mostly Sunny 84 28.9 72 22.2 67 67 WSW 10 17 29.79 1009 10 16 0.00 0.00
5:53 pm 17:53 Partly Cloudy 84 28.9 72 22.2 67 67 WSW 9 15 29.76 1008 10 16 0.00 0.00
6:53 pm 18:53 Mostly Sunny 84 28.9 72 22.2 67 67 SW 6 9 29.75 1007 10 16 0.00 0.00
7:53 pm 19:53 Mostly Sunny 82 27.8 73 22.8 74 74 S 9 15 29.77 1008 10 16 0.00 0.00
8:53 pm 20:53 Sunny 79 26.1 73 22.8 82 82 S 6 9 29.77 1008 10 16 0.00 0.00
9:34 pm 21:34 Clear with Nearby Thunderstorms 79 26 73 23 84 84 S 5 7 29.77 1008 10 16 0.00 0.00
9:43 pm 21:43 Clear 78 25.6 73 22.8 85 85 S 6 9 29.77 1008 10 16 0.00 0.00
9:53 pm 21:53 Clear 78 25.6 73 22.8 85 85 SW 3 6 29.77 1008 10 16 0.00 0.00
10:53 pm 22:53 Mostly Clear 77 25 74 23.3 90 90 Calm 29.76 1008 10 16 0.00 0.00
11:20 pm 23:20 Mostly Cloudy with Light Rain 77 25 75 23.9 94 94 Calm 29.80 1009 10 16 0.00 0.03
11:53 pm 23:53 Cloudy 78 25.6 73 22.8 85 85 NW 6 9 29.78 1008 10 16 0.00 0.03

Powered by AerisWeather